CZ-6A DEB

Satellite information

Favourite Embed

Satellite Type and Status

DEBRISIN ORBIT

Key statistics

Satellite CZ-6A DEB at a glance.

Uptime

494

Days in orbit

Revolutions

≈ 14.3

Per day

Orbit

LEO

Low Earth Orbit

Inclination

89.0

Latest

Satellite identification and parameters

Extended collection of information and parameters for CZ-6A DEB.

Object identification

Identified? True

Debris? True

Object name: CZ-6A DEB

International designator: 2024-140DN

Object number (NORAD): 60709

Object ID (CCSDS): 60709

Country: PEOPLES REPUBLIC OF CHINA (PRC)

Current information (Y/N): Y

RCS size: MEDIUM

Orbital parameters

Period: 100.917 minutes

Inclination: 89.0025 deg

SMA: 7180.22 km

Apoapsis: 816.062 km

Periapsis: 788.109 km

RAAN: 295.3275 deg

Eccentricy: 0.00194655

Argument of periapsis: 68.9753 deg

Mean anomaly: 291.3521 deg

Mean motion: 14.26908392 rev/day

Mean motion (dot): 0.00002239 rev/day2

B* drag term: 0.00091463605 1/REarth

Two-line elements (TLE)

Creation date: Dec. 12, 2025, 10:14 a.m.

Reference frame: TEME

Reference center: EARTH

Epoch: Dec. 12, 2025, 6:31 a.m. UTC

TLE line 0: 0 CZ-6A DEB

TLE line 1: 1 60709U 24140DN 25346.27196667 .00002239 00000-0 91464-3 0 9990

TLE line 2: 2 60709 89.0025 295.3275 0019466 68.9753 291.3521 14.26908392 69412

Live tracking on map

Real-time ground track for satellite CZ-6A DEB.

In-orbit conjunctions

A list of the most updated potential collisions computed for object CZ-6A DEB.

Target Orbit TCA Probability of collision Miss distance Type
FENGYUN 1C DEB SSO 2025-11-12 14:28:09 0.000105228 384.0 (m) DEBRIS
CZ-6A DEB LEO 2025-03-02 04:13:52 0.001711397 537.0 (m) DEBRIS
FENGYUN 1C DEB SSO 2025-02-15 10:31:41 0.000195344 287.0 (m) DEBRIS
COSMOS 2251 DEB LEO 2025-01-02 19:25:41 0.0001175797 969.0 (m) DEBRIS
COSMOS 1867 COOLANT LEO 2024-12-29 04:41:58 0.0003153483 586.0 (m) DEBRIS

Associated space launch

18 Low Earth Orbit communication satellites with Ku, Q and V band payloads for the G60 constellation operated by Shanghai Spacecom Satellite Technology (SSST) with funding backed by the Shanghai local government. Initial constellation will consist of 1296 satellites by 2027 with long term plans to expand it to 12000 satellites.

CZ-6A DEB was lifted into orbit during the mission ‘Long March 6A | G60 Polar Group 01’, on board a Long March 6A space rocket.

The launch took place on Aug. 6, 2024, 6:42 a.m. from Launch Complex 9A.

For more information about the launch, click the button.

Launch to space Long March 6A | G60 Polar Group 01
Long March 6A | G60 Polar Group 01

Agency: N/A

Status: Launch Successful

Launch date: Aug. 6, 2024, 6:42 a.m. UTC

Rocket: Long March 6A

Launch pad: Launch Complex 9A

Location: Taiyuan Satellite Launch Center, People's Republic of China

...

Latest news about this satellite

News about space launch
Brightness of first Chinese broadband constellation satellites alarms astronomers

The first satellites of a Chinese broadband constellation are significantly brighter than those of Western systems, posing a new challenge for astronomers.

News about space launch
Chinese rocket stage breaks up into cloud of more than 700 pieces of space debris

HELSINKI — A Chinese Long March 6A rocket’s upper stage has fragmented into a cloud of over 700 pieces of space debris, adding to concerns about long-term orbital safety. China […]

News about space launch
China's Thousand Sails Megaconstellation Kicks Off with Dangerous Debris Field

China's Thousand Sails Megaconstellation Kicks Off with Dangerous Debris Field


Newsletter sign-up

Weekly statistics, charts and insights to help you stay on top of the space industry.